Regional Weather Roundup
Issued by NWS

Home | Current Version | Previous Version | Graphics & Text | Print | Product List | Glossary On
Versions: 1 2 3 4 5 6 7 8 9 10 11 12 13 14 15 16 17 18 19 20 21 22 23 24 25 26 27 28 29 30 31 32 33 34 35 36 37 38 39 40 41 42 43 44 45 46 47 48 49 50
450
ASUS43 KDMX 050301
RWRIA

WEATHER ROUNDUP FOR IOWA
NATIONAL WEATHER SERVICE DES MOINES IA
900 PM CST SUN DEC 04 2016

NOTE: "FAIR" INDICATES FEW OR NO CLOUDS BELOW 12,000 FEET WITH NO
SIGNIFICANT WEATHER AND/OR OBSTRUCTIONS TO VISIBILITY.

* - THESE STATIONS ARE NOT NWS STATIONS...THUS NOT UNDER NWS
QUALITY CONTROL.  THEY ALSO DO NOT REPORT WEATHER SUCH
AS PRECIPITATION OR FOG.

IAZ001>003-012>014-020>022-031>034-043>046-050400-
   NORTHWEST IOWA

CITY           SKY/WX    TMP DP  RH WIND       PRES   REMARKS
CARROLL *      CLEAR     34  34 100 SW15      29.87R WCI  24
CHEROKEE *     CLEAR     32  32 100 S5        29.85R WCI  27
DENISON *      CLEAR     32  30  93 S6        29.86S WCI  26
LE MARS *      CLEAR     34  32  93 S9        29.84F WCI  26
ORANGE CITY *  CLEAR     32  28  86 CALM      29.82S
SHELDON *      CLEAR     30  30 100 S6        29.80S WCI  24
SIOUX CITY     CLEAR     30  28  92 SE6       29.85S WCI  24
SPENCER        CLEAR     33  31  92 SW10      29.82S WCI  25
STORM LAKE *   CLEAR     32  32 100 S6        29.85R WCI  26
$$

IAZ055>058-069>071-079>083-090>094-050400-
   SOUTHWEST IOWA

CITY           SKY/WX    TMP DP  RH WIND       PRES   REMARKS
ATLANTIC *     CLEAR     30  30 100 S9        29.91S FOG     WCI  22
AUDUBON *      CLEAR     34  30  86 S6        29.90S FOG     WCI  29
CLARINDA *       N/A     32  32 100 S3        29.96R
COUNCIL BLFS * CLEAR     34  32  93 S8        29.90S WCI  27
CRESTON *      CLEAR     32  32 100 SW7       29.94R FOG     WCI  26
HARLAN  *      CLEAR     32  32 100 S8        29.94R WCI  25
LAMONI         CLEAR     33  32  96 S7        29.93F WCI  27
RED OAK *      CLEAR     32  32 100 S6        29.94R WCI  26
SHENANDOAH *   CLEAR     34  32  93 S7        29.94S WCI  28
$$

IAZ047>049-059>061-072>074-084-050400-
   CENTRAL IOWA

CITY           SKY/WX    TMP DP  RH WIND       PRES   REMARKS
AMES           CLEAR     29  29 100 S3        29.89F FOG
ANKENY *       PTCLDY    34 N/A N/A SW7       29.92S WCI  28
BOONE *        CLEAR     32  32 100 SW8       29.87F FOG     WCI  25
CHARITON *       N/A     36  34  93 SW10      29.93S WCI  28
DES MOINES     PTCLDY    34  32  92 SW9       29.91F WCI  27
GRINNELL*      PTCLDY    34  32  94 SW9       29.91S WCI  26
KNOXVILLE *    PTCLDY    34  32  93 SW9       29.91S WCI  26
MARSHALLTOWN   CLEAR     31  31 100 S8        29.89S FOG     WCI  23
NEWTON *       CLEAR     34  32  93 SW12      29.90S FOG     WCI  25
PELLA *        CLEAR     35  33  92 SW8       29.93S WCI  28
PERRY *          N/A     34  34 100 SW7       29.89S WCI  28
$$

IAZ004>006-015-016-023>025-035-036-050400-
   NORTH CENTRAL IOWA

CITY           SKY/WX    TMP DP  RH WIND       PRES   REMARKS
ALGONA *       CLEAR     34  34 100 SW10      29.84R WCI  26
CLARION *      PTCLDY    32  32 100 SW8       29.86R FOG     WCI  25
ESTHERVILLE    CLEAR     33  31  92 SW10      29.81S WCI  25
FORT DODGE *   CLEAR     30  27  86 S6        29.87S WCI  24
MASON CITY     CLEAR     33  31  92 SW10      29.86R WCI  25
WEBSTER CITY * CLEAR     32  32 100 S10       29.85S FOG     WCI  24
IOWA FALLS *     N/A     32  31  96 S12       29.88S FOG     WCI  23
$$

IAZ007>011-017>019-026>030-037>042-050>054-066-050400-
   NORTHEAST IOWA

CITY           SKY/WX    TMP DP  RH WIND       PRES   REMARKS
CEDAR RAPIDS   CLOUDY    33  33 100 W10       29.91S WCI  25
CHARLES CITY * CLOUDY    34  34 100 SW10      29.86R FOG     WCI  26
CLINTON *      CLOUDY    33  32  96 W13       29.92S WCI  24
DECORAH *      CLOUDY    32  32 100 VRB7G14   29.84R WCI  26
DUBUQUE        CLOUDY    32  30  92 W14       29.88R WCI  22
MONTICELLO *   CLOUDY    34  32  93 W12G17    29.90R WCI  25
OELWEIN *      CLOUDY    32  32 100 SW12      29.88S WCI  23
WATERLOO       CLOUDY    33  30  88 SW14      29.88F WCI  23
$$

IAZ064-065-067-068-078-050400-
   EAST CENTRAL IOWA

CITY           SKY/WX    TMP DP  RH WIND       PRES   REMARKS
DAVENPORT      CLOUDY    33  31  92 W15       29.93R WCI  23
IOWA CITY      CLOUDY    35  32  88 W6        29.94S WCI  30
MUSCATINE *    CLOUDY    36  32  87 SW9       29.95S WCI  29
QUAD CITIES    CLOUDY    35  31  85 W10       29.94R WCI  27
$$

IAZ062-063-075>077-085>089-095>099-050400-
   SOUTHEAST IOWA

CITY           SKY/WX    TMP DP  RH WIND       PRES   REMARKS
BURLINGTON     CLOUDY    34  32  92 W10       29.97R WCI  26
FAIRFIELD *    CLOUDY    36  32  87 SW9       29.94R WCI  29
FORT MADISON * CLOUDY    34  32  93 W6        29.98S WCI  29
KEOKUK *       CLOUDY    36  32  87 SW6G14    29.98S WCI  31
OSKALOOSA *    CLOUDY    34  32  93 SW8       29.93S WCI  27
CENTERVILLE *  CLOUDY    34  32  93 SW13      29.97R WCI  25
OTTUMWA        MOCLDY    35  31  85 SW9       29.93S WCI  28
WASHINGTON *   CLOUDY    36  34  93 W9        29.95R WCI  29
$$

ABBREVIATIONS USED IN REMARKS
   TC - TEMPERATURES IN CELSIUS
  WCI - WIND CHILL INDEX
   HX - HEAT INDEX
  VSB - VISIBILITY
$$





USA.gov is the U.S. government's official web portal to all federal, state and local government web resources and services.